| time (UTC) | temp F | wind direction | speed knots | gust knots | rain 1hr in | rain 24hr in | rain mn in | humidity % | barometer mb |
| 20260507191559 | 82 | 5 | 1.7 | 7.0 | 0.00 | 0.00 | 0.00 | 60 | 1009.1 |
| 20260507191530 | 82 | 5 | 1.7 | 7.0 | 0.00 | 0.00 | 0.00 | 60 | 1010.0 |
| 20260507190057 | 82 | 9 | 0.0 | 4.3 | 0.00 | 0.00 | 0.00 | 60 | 1009.0 |
| 20260507190037 | 82 | 0 | 0.0 | 4.3 | 0.00 | 0.00 | 0.00 | 59 | 1009.9 |
| 20260507184555 | 82 | 9 | 0.0 | 4.3 | 0.00 | 0.00 | 0.00 | 60 | 1008.9 |
| 20260507184536 | 82 | 0 | 0.0 | 6.1 | 0.00 | 0.00 | 0.00 | 60 | 1009.7 |
| 20260507183054 | 81 | 10 | 0.0 | 2.6 | 0.00 | 0.00 | 0.00 | 64 | 1008.7 |
| 20260507183030 | 81 | 0 | 0.0 | 1.7 | 0.00 | 0.00 | 0.00 | 64 | 1009.7 |
| 20260507181553 | 80 | 9 | 0.0 | 7.8 | 0.00 | 0.00 | 0.00 | 65 | 1008.9 |
| 20260507181528 | 80 | 0 | 0.0 | 7.8 | 0.00 | 0.00 | 0.00 | 64 | 1009.7 |
| 20260507180057 | 79 | 9 | 0.0 | 5.2 | 0.00 | 0.00 | 0.00 | 66 | 1009.0 |
| 20260507180029 | 79 | 0 | 0.0 | 6.1 | 0.00 | 0.00 | 0.00 | 66 | 1009.9 |
| 20260507174602 | 78 | 9 | 0.0 | 3.5 | 0.00 | 0.00 | 0.00 | 66 | 1009.2 |
| 20260507174537 | 78 | 0 | 0.0 | 3.5 | 0.00 | 0.00 | 0.00 | 66 | 1009.9 |
| 20260507173049 | 77 | 9 | 0.0 | 5.2 | 0.00 | 0.00 | 0.00 | 68 | 1008.9 |
| 20260507173035 | 77 | 0 | 0.0 | 6.1 | 0.00 | 0.00 | 0.00 | 67 | 1009.7 |
| 20260507171559 | 77 | 5 | 0.0 | 3.5 | 0.00 | 0.00 | 0.00 | 69 | 1009.2 |
| 20260507171533 | 77 | 0 | 0.0 | 3.5 | 0.00 | 0.00 | 0.00 | 68 | 1010.1 |
| 20260507170041 | 76 | 5 | 0.0 | 5.2 | 0.00 | 0.00 | 0.00 | 69 | 1009.5 |
| 20260507170034 | 76 | 5 | 0.0 | 5.2 | 0.00 | 0.00 | 0.00 | 69 | 1010.3 |
| 20260507164543 | 75 | 9 | 0.0 | 2.6 | 0.00 | 0.00 | 0.00 | 72 | 1009.6 |
| 20260507164530 | 75 | 0 | 0.0 | 2.6 | 0.00 | 0.00 | 0.00 | 71 | 1010.2 |
| 20260507163043 | 75 | 9 | 0.0 | 1.7 | 0.00 | 0.00 | 0.00 | 75 | 1009.5 |
| 20260507163033 | 75 | 9 | 0.0 | 1.7 | 0.00 | 0.00 | 0.00 | 74 | 1010.2 |
| 20260507161540 | 74 | 10 | 0.0 | 5.2 | 0.00 | 0.00 | 0.00 | 74 | 1010.0 |
| 20260507161530 | 74 | 0 | 0.0 | 6.1 | 0.00 | 0.00 | 0.00 | 74 | 1010.6 |
| 20260507160043 | 74 | 11 | 0.0 | 13.0 | 0.00 | 0.00 | 0.00 | 74 | 1009.7 |
| 20260507160030 | 74 | 0 | 0.9 | 13.0 | 0.00 | 0.00 | 0.00 | 73 | 1010.7 |
| 20260507154532 | 74 | 12 | 0.9 | 11.3 | 0.00 | 0.00 | 0.00 | 74 | 1009.7 |
| 20260507153033 | 74 | 13 | 0.0 | 6.1 | 0.00 | 0.00 | 0.00 | 77 | 1013.1 |
| 20260507151531 | 74 | 11 | 0.0 | 2.6 | 0.00 | 0.00 | 0.00 | 78 | 1011.9 |
| 20260507151528 | 74 | 12 | 0.0 | 3.5 | 0.00 | 0.00 | 0.00 | 78 | 1011.0 |
| 20260507150032 | 74 | 0 | 0.0 | 2.6 | 0.00 | 0.00 | 0.00 | 78 | 1012.2 |
| 20260507150029 | 74 | 19 | 0.0 | 2.6 | 0.00 | 0.00 | 0.00 | 79 | 1011.3 |
| 20260507144532 | 73 | 41 | 0.0 | 1.7 | 0.00 | 0.00 | 0.00 | 79 | 1010.4 |
| 20260507143315 | 72 | 0 | 0.0 | 2.6 | 0.00 | 0.00 | 0.00 | 79 | 1011.4 |
| 20260507141530 | 71 | 20 | 0.0 | 2.6 | 0.00 | 0.00 | 0.00 | 81 | 1010.3 |
| 20260507141523 | 71 | 21 | 0.0 | 2.6 | 0.00 | 0.00 | 0.00 | 81 | 1009.5 |
| 20260507140029 | 71 | 9 | 0.9 | 3.5 | 0.00 | 0.00 | 0.00 | 81 | 1012.1 |
| 20260507140022 | 71 | 9 | 0.9 | 3.5 | 0.00 | 0.00 | 0.00 | 81 | 1011.1 |
| 20260507134530 | 71 | 14 | 0.0 | 2.6 | 0.00 | 0.00 | 0.00 | 80 | 1011.1 |
| 20260507134522 | 71 | 14 | 0.0 | 2.6 | 0.00 | 0.00 | 0.00 | 80 | 1010.4 |
| 20260507133028 | 71 | 0 | 0.0 | 2.6 | 0.00 | 0.00 | 0.00 | 79 | 1012.8 |
| 20260507133021 | 71 | 17 | 0.0 | 1.7 | 0.00 | 0.00 | 0.00 | 79 | 1012.0 |
| 20260507131529 | 72 | 0 | 0.0 | 4.3 | 0.00 | 0.00 | 0.00 | 78 | 1013.0 |
| 20260507131520 | 72 | 9 | 0.0 | 2.6 | 0.00 | 0.00 | 0.00 | 78 | 1012.1 |
| 20260507130027 | 72 | 0 | 0.0 | 0.9 | 0.00 | 0.00 | 0.00 | 76 | 1014.4 |
| 20260507130025 | 72 | 9 | 0.0 | 0.0 | 0.00 | 0.00 | 0.00 | 76 | 1013.5 |
| 20260507124530 | 72 | 9 | 0.0 | 6.1 | 0.00 | 0.00 | 0.00 | 74 | 1010.4 |
| 20260507124526 | 72 | 9 | 0.9 | 5.2 | 0.00 | 0.00 | 0.00 | 75 | 1009.5 |
| 20260507123033 | 70 | 9 | 0.0 | 4.3 | 0.00 | 0.00 | 0.00 | 72 | 1010.3 |
| 20260507123016 | 70 | 9 | 0.0 | 4.3 | 0.00 | 0.00 | 0.00 | 72 | 1009.4 |
| 20260507121537 | 70 | 0 | 0.9 | 7.0 | 0.00 | 0.00 | 0.00 | 72 | 1009.9 |
| 20260507121516 | 70 | 9 | 0.0 | 7.0 | 0.00 | 0.00 | 0.00 | 72 | 1009.0 |
| 20260507120029 | 70 | 0 | 0.0 | 1.7 | 0.00 | 0.00 | 0.00 | 74 | 1011.8 |
| 20260507120012 | 70 | 9 | 0.0 | 1.7 | 0.00 | 0.00 | 0.00 | 74 | 1011.1 |
| 20260507114529 | 70 | 0 | 0.0 | 0.9 | 0.00 | 0.00 | 0.00 | 77 | 1013.3 |
| 20260507114510 | 70 | 5 | 0.0 | 0.9 | 0.00 | 0.00 | 0.00 | 77 | 1012.5 |
| 20260507113034 | 71 | 0 | 0.0 | 0.0 | 0.00 | 0.00 | 0.00 | 77 | 1012.8 |
| 20260507113014 | 71 | 5 | 0.0 | 0.0 | 0.00 | 0.00 | 0.00 | 77 | 1011.9 |
| 20260507111532 | 71 | 0 | 0.0 | 2.6 | 0.00 | 0.00 | 0.00 | 77 | 1012.9 |
| 20260507111513 | 71 | 5 | 0.0 | 0.9 | 0.00 | 0.00 | 0.00 | 77 | 1012.2 |
| 20260507110032 | 72 | 5 | 0.9 | 5.2 | 0.00 | 0.00 | 0.00 | 77 | 1013.5 |
| 20260507110023 | 72 | 5 | 0.9 | 3.5 | 0.00 | 0.00 | 0.00 | 78 | 1012.7 |
| 20260507104531 | 72 | 5 | 0.0 | 3.5 | 0.00 | 0.00 | 0.00 | 76 | 1013.0 |
| 20260507104506 | 72 | 5 | 0.0 | 3.5 | 0.00 | 0.00 | 0.00 | 76 | 1012.3 |
| 20260507103031 | 71 | 5 | 1.7 | 3.5 | 0.00 | 0.00 | 0.00 | 75 | 1013.3 |
| 20260507103006 | 71 | 5 | 1.7 | 3.5 | 0.00 | 0.00 | 0.00 | 76 | 1012.6 |
| 20260507101535 | 71 | 5 | 0.9 | 2.6 | 0.00 | 0.00 | 0.00 | 76 | 1013.8 |
| 20260507101507 | 71 | 5 | 0.9 | 2.6 | 0.00 | 0.00 | 0.00 | 77 | 1013.0 |
| 20260507100034 | 72 | 0 | 0.0 | 0.9 | 0.00 | 0.00 | 0.00 | 77 | 1013.9 |
| 20260507100006 | 72 | 9 | 0.0 | 0.9 | 0.00 | 0.00 | 0.00 | 78 | 1013.1 |
| 20260507094530 | 72 | 0 | 0.0 | 1.7 | 0.00 | 0.00 | 0.00 | 78 | 1013.8 |
| 20260507094504 | 72 | 9 | 0.0 | 1.7 | 0.00 | 0.00 | 0.00 | 79 | 1013.2 |
| 20260507093038 | 72 | 0 | 0.0 | 0.9 | 0.00 | 0.00 | 0.00 | 79 | 1013.6 |
| 20260507093002 | 72 | 9 | 0.0 | 0.9 | 0.00 | 0.00 | 0.00 | 80 | 1012.8 |
| 20260507091600 | 72 | 9 | 0.0 | 0.9 | 0.00 | 0.00 | 0.00 | 80 | 1012.7 |
| 20260507091529 | 72 | 0 | 0.0 | 0.9 | 0.00 | 0.00 | 0.00 | 80 | 1013.5 |
| 20260507090106 | 73 | 9 | 0.0 | 0.0 | 0.00 | 0.00 | 0.00 | 80 | 1012.3 |
| 20260507090033 | 73 | 0 | 0.0 | 0.0 | 0.00 | 0.00 | 0.00 | 80 | 1013.0 |
| 20260507084558 | 73 | 9 | 0.0 | 0.0 | 0.00 | 0.00 | 0.00 | 80 | 1011.4 |
| 20260507084528 | 73 | 0 | 0.0 | 0.0 | 0.00 | 0.00 | 0.00 | 80 | 1012.2 |
| 20260507083057 | 73 | 9 | 0.0 | 0.9 | 0.00 | 0.00 | 0.00 | 80 | 1011.3 |
| 20260507083038 | 73 | 0 | 0.0 | 0.9 | 0.00 | 0.00 | 0.00 | 80 | 1012.2 |
| 20260507081557 | 73 | 9 | 0.0 | 0.9 | 0.00 | 0.00 | 0.00 | 80 | 1011.1 |
| 20260507081531 | 73 | 0 | 0.0 | 0.9 | 0.00 | 0.00 | 0.00 | 79 | 1011.8 |
| 20260507080032 | 73 | 0 | 0.0 | 2.6 | 0.00 | 0.00 | 0.00 | 79 | 1011.7 |
| 20260507074607 | 73 | 9 | 0.0 | 2.6 | 0.00 | 0.00 | 0.00 | 79 | 1010.7 |
| 20260507074530 | 73 | 0 | 0.0 | 2.6 | 0.00 | 0.00 | 0.00 | 78 | 1011.5 |
| 20260507073055 | 74 | 9 | 0.0 | 1.7 | 0.00 | 0.00 | 0.00 | 78 | 1010.7 |
| 20260507073028 | 74 | 0 | 0.0 | 4.3 | 0.00 | 0.00 | 0.00 | 78 | 1011.6 |
| 20260507071553 | 74 | 9 | 0.0 | 3.5 | 0.00 | 0.00 | 0.00 | 77 | 1011.2 |
| 20260507071548 | 74 | 0 | 0.0 | 3.5 | 0.00 | 0.00 | 0.00 | 77 | 1012.0 |
| 20260507070106 | 74 | 9 | 0.0 | 2.6 | 0.00 | 0.00 | 0.00 | 77 | 1011.0 |
| 20260507070031 | 74 | 0 | 0.0 | 2.6 | 0.00 | 0.00 | 0.00 | 76 | 1011.8 |
| 20260507064554 | 74 | 9 | 0.0 | 3.5 | 0.00 | 0.00 | 0.00 | 76 | 1011.0 |
| 20260507064529 | 74 | 9 | 0.0 | 7.8 | 0.00 | 0.00 | 0.00 | 76 | 1011.9 |
| 20260507063057 | 74 | 9 | 0.0 | 5.2 | 0.00 | 0.00 | 0.00 | 76 | 1011.3 |
| 20260507063035 | 74 | 0 | 0.0 | 6.1 | 0.00 | 0.00 | 0.00 | 76 | 1012.1 |
| 20260507061549 | 73 | 9 | 0.0 | 6.1 | 0.00 | 0.00 | 0.00 | 76 | 1011.5 |
| 20260507061530 | 73 | 0 | 0.0 | 4.3 | 0.00 | 0.00 | 0.00 | 76 | 1012.3 |
| 20260507060048 | 73 | 9 | 0.0 | 7.8 | 0.00 | 0.00 | 0.00 | 77 | 1011.9 |
| 20260507060028 | 73 | 0 | 0.0 | 7.8 | 0.00 | 0.00 | 0.00 | 77 | 1012.8 |
| 20260507054546 | 73 | 9 | 1.7 | 9.6 | 0.00 | 0.00 | 0.00 | 78 | 1011.7 |
| 20260507054528 | 73 | 9 | 0.9 | 7.8 | 0.00 | 0.00 | 0.00 | 77 | 1012.6 |
| 20260507053041 | 73 | 9 | 0.9 | 4.3 | 0.00 | 0.00 | 0.00 | 79 | 1012.3 |
| 20260507053029 | 73 | 0 | 0.9 | 6.1 | 0.00 | 0.00 | 0.00 | 78 | 1013.0 |
| 20260507051540 | 73 | 9 | 0.9 | 5.2 | 0.00 | 0.00 | 0.00 | 80 | 1012.5 |
| 20260507051528 | 73 | 0 | 0.9 | 6.1 | 0.00 | 0.00 | 0.00 | 79 | 1013.2 |
| 20260507050038 | 73 | 9 | 0.0 | 5.2 | 0.00 | 0.00 | 0.00 | 81 | 1012.8 |
| 20260507050029 | 73 | 9 | 0.0 | 6.1 | 0.00 | 0.00 | 0.00 | 81 | 1013.5 |
| 20260507044540 | 73 | 9 | 0.9 | 5.2 | 0.00 | 0.00 | 0.00 | 83 | 1012.8 |
| 20260507044530 | 73 | 9 | 0.0 | 6.1 | 0.00 | 0.00 | 0.00 | 82 | 1013.6 |
| 20260507043038 | 73 | 9 | 0.0 | 5.2 | 0.00 | 0.00 | 0.00 | 83 | 1012.7 |
| 20260507043034 | 73 | 9 | 0.0 | 6.1 | 0.00 | 0.00 | 0.00 | 83 | 1013.5 |
| 20260507041534 | 73 | 9 | 0.0 | 4.3 | 0.00 | 0.00 | 0.00 | 84 | 1012.8 |
| 20260507041529 | 73 | 0 | 0.9 | 4.3 | 0.00 | 0.00 | 0.00 | 84 | 1013.6 |
| 20260507040034 | 73 | 9 | 0.0 | 4.3 | 0.00 | 0.00 | 0.00 | 85 | 1012.6 |
| 20260507040027 | 73 | 0 | 0.0 | 4.3 | 0.00 | 0.00 | 0.00 | 85 | 1013.5 |
| 20260507034535 | 73 | 9 | 0.0 | 7.8 | 0.00 | 0.00 | 0.00 | 86 | 1012.6 |
| 20260507034530 | 73 | 9 | 0.0 | 7.8 | 0.00 | 0.00 | 0.00 | 85 | 1013.4 |
| 20260507033030 | 73 | 9 | 0.0 | 4.3 | 0.00 | 0.00 | 0.00 | 86 | 1013.0 |
| 20260507033028 | 73 | 9 | 0.0 | 4.3 | 0.00 | 0.00 | 0.00 | 85 | 1013.7 |
| 20260507031530 | 73 | 9 | 0.0 | 3.5 | 0.00 | 0.00 | 0.00 | 86 | 1012.7 |
| 20260507031528 | 73 | 0 | 0.0 | 4.3 | 0.00 | 0.00 | 0.00 | 85 | 1013.5 |
| 20260507030132 | 73 | 9 | 0.0 | 7.8 | 0.00 | 0.00 | 0.00 | 86 | 1012.8 |
| 20260507030032 | 73 | 9 | 0.9 | 7.8 | 0.00 | 0.00 | 0.00 | 85 | 1013.7 |
| 20260507024529 | 73 | 0 | 0.0 | 2.6 | 0.00 | 0.00 | 0.00 | 84 | 1013.1 |
| 20260507023030 | 73 | 9 | 0.0 | 3.5 | 0.00 | 0.00 | 0.00 | 84 | 1013.3 |
| 20260507023028 | 73 | 9 | 0.0 | 3.5 | 0.00 | 0.00 | 0.00 | 85 | 1012.3 |
| 20260507021532 | 73 | 0 | 0.0 | 6.1 | 0.00 | 0.00 | 0.00 | 83 | 1013.0 |
| 20260507021529 | 73 | 9 | 0.0 | 5.2 | 0.00 | 0.00 | 0.00 | 84 | 1012.2 |
| 20260507020038 | 73 | 9 | 0.0 | 4.3 | 0.00 | 0.00 | 0.00 | 83 | 1012.6 |
| 20260507020033 | 73 | 0 | 0.0 | 4.3 | 0.00 | 0.00 | 0.00 | 83 | 1013.5 |
| 20260507014531 | 73 | 0 | 0.0 | 3.5 | 0.00 | 0.00 | 0.00 | 82 | 1013.5 |
| 20260507014526 | 73 | 9 | 0.0 | 3.5 | 0.00 | 0.00 | 0.00 | 82 | 1012.6 |
| 20260507013040 | 73 | 9 | 0.0 | 5.2 | 0.00 | 0.00 | 0.00 | 82 | 1012.8 |
| 20260507013036 | 73 | 9 | 0.0 | 6.1 | 0.00 | 0.00 | 0.00 | 81 | 1013.6 |
| 20260507011537 | 73 | 9 | 0.9 | 4.3 | 0.00 | 0.00 | 0.00 | 81 | 1014.0 |
| 20260507011525 | 73 | 9 | 0.0 | 4.3 | 0.00 | 0.00 | 0.00 | 82 | 1013.2 |
| 20260507010033 | 73 | 9 | 0.0 | 2.6 | 0.00 | 0.00 | 0.00 | 81 | 1013.9 |
| 20260507010031 | 73 | 9 | 0.0 | 2.6 | 0.00 | 0.00 | 0.00 | 82 | 1012.9 |
| 20260507004531 | 74 | 9 | 0.0 | 3.5 | 0.00 | 0.00 | 0.00 | 81 | 1013.7 |
| 20260507004524 | 74 | 9 | 0.0 | 3.5 | 0.00 | 0.00 | 0.00 | 81 | 1012.8 |
| 20260507003029 | 74 | 0 | 0.0 | 6.1 | 0.00 | 0.00 | 0.00 | 80 | 1013.8 |
| 20260507003024 | 74 | 9 | 0.0 | 5.2 | 0.00 | 0.00 | 0.00 | 80 | 1012.9 |
| 20260507001533 | 74 | 9 | 0.0 | 6.1 | 0.00 | 0.00 | 0.00 | 79 | 1013.5 |
| 20260507001529 | 74 | 9 | 0.0 | 3.5 | 0.00 | 0.00 | 0.00 | 79 | 1012.6 |
| 20260507000028 | 74 | 0 | 0.0 | 7.0 | 0.00 | 0.00 | 0.00 | 78 | 1013.5 |
| 20260507000023 | 74 | 9 | 0.0 | 3.5 | 0.00 | 0.00 | 0.00 | 79 | 1012.6 |
| 20260506234540 | 74 | 0 | 0.0 | 6.1 | 0.00 | 0.00 | 0.00 | 77 | 1013.5 |
| 20260506234529 | 74 | 9 | 0.0 | 5.2 | 0.00 | 0.00 | 0.00 | 78 | 1012.7 |
| 20260506233033 | 74 | 0 | 0.0 | 4.3 | 0.00 | 0.00 | 0.00 | 76 | 1013.4 |
| 20260506233021 | 74 | 9 | 0.0 | 3.5 | 0.00 | 0.00 | 0.00 | 76 | 1012.5 |
| 20260506231535 | 75 | 0 | 0.9 | 7.0 | 0.00 | 0.00 | 0.00 | 75 | 1013.3 |
| 20260506231526 | 75 | 9 | 1.7 | 7.0 | 0.00 | 0.00 | 0.00 | 75 | 1012.4 |
| 20260506230030 | 75 | 9 | 0.0 | 7.0 | 0.00 | 0.00 | 0.00 | 74 | 1013.4 |
| 20260506230021 | 75 | 9 | 0.0 | 7.0 | 0.00 | 0.00 | 0.00 | 74 | 1012.5 |
| 20260506224531 | 76 | 9 | 0.0 | 6.1 | 0.00 | 0.00 | 0.00 | 74 | 1013.4 |
| 20260506224519 | 76 | 9 | 0.0 | 5.2 | 0.00 | 0.00 | 0.00 | 74 | 1012.5 |
| 20260506223031 | 76 | 0 | 1.7 | 8.7 | 0.00 | 0.00 | 0.00 | 74 | 1013.7 |
| 20260506223017 | 76 | 9 | 0.9 | 6.1 | 0.00 | 0.00 | 0.00 | 74 | 1012.9 |
| 20260506221529 | 76 | 9 | 0.9 | 7.0 | 0.00 | 0.00 | 0.00 | 74 | 1013.6 |
| 20260506221516 | 76 | 9 | 0.9 | 7.0 | 0.00 | 0.00 | 0.00 | 74 | 1012.7 |
| 20260506220032 | 76 | 9 | 0.9 | 7.0 | 0.00 | 0.00 | 0.00 | 74 | 1013.5 |
| 20260506220023 | 76 | 9 | 0.9 | 7.0 | 0.00 | 0.00 | 0.00 | 74 | 1012.6 |
| 20260506214529 | 76 | 9 | 0.9 | 7.0 | 0.00 | 0.00 | 0.00 | 73 | 1013.5 |
| 20260506214515 | 76 | 9 | 0.9 | 4.3 | 0.00 | 0.00 | 0.00 | 73 | 1012.7 |
| 20260506213030 | 76 | 9 | 1.7 | 10.4 | 0.00 | 0.00 | 0.00 | 72 | 1013.6 |
| 20260506213013 | 76 | 9 | 3.5 | 9.6 | 0.00 | 0.00 | 0.00 | 72 | 1012.7 |
| 20260506211529 | 76 | 0 | 0.9 | 8.7 | 0.00 | 0.00 | 0.00 | 72 | 1013.8 |
| 20260506211519 | 76 | 9 | 0.0 | 8.7 | 0.00 | 0.00 | 0.00 | 72 | 1012.9 |
| 20260506210030 | 77 | 0 | 0.0 | 8.7 | 0.00 | 0.00 | 0.00 | 72 | 1013.9 |
| 20260506210017 | 77 | 9 | 0.9 | 8.7 | 0.00 | 0.00 | 0.00 | 72 | 1013.1 |
| 20260506204534 | 77 | 0 | 0.9 | 7.8 | 0.00 | 0.00 | 0.00 | 71 | 1014.0 |
| 20260506204509 | 77 | 9 | 0.9 | 7.8 | 0.00 | 0.00 | 0.00 | 72 | 1013.2 |
| 20260506203034 | 77 | 9 | 0.9 | 6.1 | 0.00 | 0.00 | 0.00 | 71 | 1014.1 |
| 20260506203007 | 77 | 9 | 0.9 | 5.2 | 0.00 | 0.00 | 0.00 | 71 | 1013.2 |
| 20260506201530 | 77 | 0 | 0.9 | 10.4 | 0.00 | 0.00 | 0.00 | 70 | 1014.3 |
| 20260506201507 | 77 | 9 | 0.0 | 7.0 | 0.00 | 0.00 | 0.00 | 71 | 1013.4 |
| 20260506200044 | 77 | 9 | 1.7 | 9.6 | 0.00 | 0.00 | 0.00 | 70 | 1014.3 |
| 20260506200010 | 77 | 9 | 1.7 | 9.6 | 0.00 | 0.00 | 0.00 | 70 | 1013.5 |
| 20260506194530 | 78 | 0 | 1.7 | 7.8 | 0.00 | 0.00 | 0.00 | 69 | 1014.2 |
| 20260506194504 | 78 | 9 | 1.7 | 7.8 | 0.00 | 0.00 | 0.00 | 70 | 1013.4 |
| 20260506193031 | 78 | 9 | 0.9 | 9.6 | 0.00 | 0.00 | 0.00 | 70 | 1014.5 |
| 20260506193002 | 78 | 9 | 0.0 | 9.6 | 0.00 | 0.00 | 0.00 | 70 | 1013.7 |